Total_Precipitation_Accumulation
1.49 1.58 1.51 1.48 1.50 1.50 1.61 1.70 1.63 1.44 1.25 1.17 1.07 0.95 0.92 0.89 0.88 0.86 0.83 0.74 0.65 0.60 0.55 0.53 0.54 0.55 0.61 0.76 0.94 1.11 1.22 1.29 1.33 1.35 1.40 1.45 1.52 1.63
1.29 1.35 1.41 1.45 1.58 1.54 1.60 1.68 1.73 1.63 1.33 1.26 1.17 0.97 1.02 0.80 0.78 0.81 0.81 0.72 0.57 0.51 0.49 0.49 0.50 0.53 0.54 0.57 0.66 0.79 0.94 1.05 1.14 1.21 1.21 1.20 1.19 1.24
0.97 1.01 1.06 1.16 1.29 1.33 1.41 1.49 1.61 1.66 1.39 1.35 1.48 1.35 1.32 1.09 0.93 0.86 0.72 0.67 0.61 0.51 0.45 0.43 0.44 0.48 0.54 0.55 0.54 0.59 0.69 0.78 0.86 0.97 1.11 1.20 1.23 1.25
0.82 0.84 0.82 0.91 1.06 1.13 1.21 1.32 1.49 1.68 1.54 1.46 1.60 1.65 1.56 1.36 1.23 1.05 0.79 0.64 0.67 0.63 0.48 0.42 0.41 0.44 0.51 0.55 0.52 0.52 0.55 0.60 0.64 0.70 0.82 0.94 1.06 1.17
0.60 0.59 0.60 0.68 0.80 0.93 1.06 1.13 1.25 1.57 1.64 1.51 1.55 1.80 1.79 1.61 1.56 1.30 1.11 1.01 0.75 0.69 0.56 0.46 0.43 0.43 0.48 0.56 0.57 0.54 0.51 0.52 0.54 0.60 0.70 0.84 0.92 0.99
0.50 0.43 0.42 0.52 0.64 0.76 0.86 0.97 1.09 1.26 1.46 1.53 1.54 1.75 1.85 1.75 1.84 1.64 1.40 1.24 1.01 0.80 0.71 0.53 0.47 0.49 0.49 0.52 0.57 0.60 0.59 0.57 0.58 0.66 0.72 0.77 0.88 0.96
0.50 0.40 0.36 0.39 0.46 0.57 0.63 0.75 0.91 1.06 1.18 1.35 1.47 1.63 1.85 1.84 1.73 1.71 1.55 1.39 1.29 1.18 1.14 0.81 0.55 0.47 0.47 0.50 0.55 0.64 0.70 0.72 0.73 0.78 0.87 0.93 0.96 1.00
0.47 0.43 0.37 0.33 0.33 0.38 0.44 0.51 0.60 0.72 0.90 1.11 1.24 1.38 1.61 1.81 1.78 1.81 1.73 1.50 1.39 1.32 1.38 1.40 1.07 0.81 0.65 0.47 0.46 0.55 0.69 0.81 0.86 0.91 0.98 1.10 1.21 1.19
0.43 0.43 0.32 0.27 0.29 0.29 0.30 0.35 0.42 0.43 0.52 0.74 0.91 0.97 1.13 1.41 1.71 1.85 1.91 1.76 1.58 1.55 1.55 1.68 1.76 1.50 1.03 0.71 0.61 0.53 0.61 0.75 0.83 0.91 1.00 1.05 1.21 1.38
0.41 0.39 0.36 0.32 0.32 0.34 0.37 0.38 0.35 0.33 0.33 0.39 0.50 0.69 0.83 1.06 1.42 1.64 1.87 2.05 1.94 1.86 1.79 1.89 1.99 2.20 1.76 1.20 0.96 0.74 0.70 0.74 0.83 0.89 0.96 1.05 1.14 1.24
0.42 0.40 0.38 0.36 0.32 0.27 0.34 0.38 0.34 0.32 0.30 0.32 0.38 0.52 0.71 0.84 1.13 1.46 1.71 1.83 1.90 1.98 1.96 2.02 2.03 2.16 2.49 2.08 1.40 1.00 0.79 0.72 0.77 0.84 0.90 1.01 1.09 1.09
0.53 0.53 0.40 0.32 0.30 0.26 0.29 0.34 0.33 0.31 0.33 0.32 0.36 0.42 0.51 0.65 0.85 1.11 1.32 1.48 1.53 1.68 1.64 1.56 1.61 1.73 2.20 2.53 2.19 1.56 1.10 0.89 0.78 0.76 0.79 0.89 1.01 0.93
0.56 0.57 0.52 0.37 0.26 0.23 0.26 0.32 0.30 0.34 0.43 0.43 0.44 0.48 0.57 0.63 0.69 0.88 1.11 1.29 1.36 1.25 1.13 1.19 1.37 1.45 1.52 1.85 2.11 2.07 1.68 1.33 1.11 0.96 0.89 0.87 0.91 0.92
0.66 0.64 0.61 0.46 0.33 0.25 0.22 0.25 0.28 0.30 0.39 0.44 0.45 0.47 0.53 0.57 0.63 0.77 0.96 1.11 1.23 1.27 1.19 1.19 1.33 1.37 1.43 1.53 1.66 1.80 1.86 1.72 1.53 1.39 1.29 1.24 1.10 1.06
0.74 0.72 0.69 0.52 0.41 0.33 0.28 0.28 0.30 0.33 0.38 0.43 0.43 0.43 0.47 0.55 0.64 0.80 0.94 1.07 1.14 1.14 1.13 1.12 1.14 1.13 1.18 1.30 1.35 1.36 1.47 1.61 1.63 1.58 1.57 1.52 1.40 1.28
0.76 0.71 0.67 0.61 0.51 0.47 0.42 0.36 0.33 0.39 0.42 0.44 0.46 0.49 0.56 0.65 0.72 0.76 0.86 0.97 1.10 1.12 1.07 1.06 1.05 1.06 1.03 0.95 0.93 0.89 0.92 1.07 1.26 1.37 1.51 1.69 1.72 1.67
0.86 0.81 0.78 0.73 0.66 0.64 0.62 0.57 0.51 0.52 0.51 0.54 0.58 0.58 0.59 0.65 0.75 0.79 0.84 0.84 0.89 0.97 1.03 1.06 1.10 1.11 1.07 1.00 0.93 0.84 0.80 0.76 0.81 1.02 1.25 1.55 1.65 1.52
0.78 0.84 0.83 0.80 0.74 0.72 0.73 0.71 0.67 0.65 0.65 0.64 0.64 0.64 0.62 0.63 0.72 0.83 0.89 0.84 0.80 0.83 0.93 0.98 1.12 1.25 1.29 1.20 0.93 0.79 0.80 0.77 0.76 0.84 0.93 1.04 1.14 1.07
0.73 0.82 0.79 0.79 0.79 0.79 0.79 0.75 0.73 0.73 0.75 0.75 0.70 0.69 0.68 0.68 0.71 0.79 0.88 0.88 0.82 0.83 0.93 1.01 1.05 1.06 1.05 1.01 0.92 0.68 0.65 0.67 0.74 0.85 0.88 0.81 0.76 0.70
0.73 0.78 0.78 0.78 0.80 0.83 0.83 0.78 0.79 0.82 0.83 0.81 0.77 0.74 0.73 0.72 0.74 0.76 0.81 0.85 0.82 0.82 0.90 0.98 0.96 0.90 0.83 0.79 0.79 0.75 0.59 0.62 0.64 0.71 0.79 0.79 0.72 0.62
0.75 0.78 0.78 0.77 0.79 0.83 0.83 0.81 0.81 0.80 0.78 0.79 0.78 0.76 0.71 0.70 0.75 0.77 0.81 0.86 0.85 0.81 0.78 0.80 0.83 0.90 0.97 1.07 1.04 0.97 0.83 0.68 0.67 0.63 0.69 0.78 0.81 0.76
0.65 0.70 0.73 0.75 0.78 0.81 0.78 0.76 0.78 0.78 0.77 0.76 0.75 0.75 0.72 0.66 0.67 0.73 0.77 0.79 0.78 0.74 0.73 0.78 0.90 1.02 1.05 1.06 1.05 1.02 1.03 0.98 0.90 0.88 0.81 0.70 0.63 0.64
0.63 0.68 0.67 0.68 0.72 0.75 0.70 0.67 0.70 0.73 0.73 0.74 0.74 0.72 0.70 0.67 0.64 0.70 0.76 0.79 0.80 0.82 0.84 0.90 0.93 0.97 1.01 1.02 1.08 1.12 1.08 1.05 1.02 0.99 0.92 0.75 0.54 0.46